| time (UTC) | temp F | wind direction | speed MPH | gust MPH | rain 1hr in | rain 24hr in | rain mn in | humidity % | barometer mb |
| 20260504081544 | 35 | 0 | 0.0 | 0.0 | 0.00 | 0.00 | 0.00 | 91 | 1013.7 |
| 20260504044546 | 38 | 0 | 0.0 | 0.0 | 0.00 | 0.00 | 0.00 | 85 | 1013.5 |
| 20260504043108 | 38 | 0 | 0.0 | 0.0 | 0.00 | 0.00 | 0.00 | 84 | 1013.5 |
| 20260504041550 | 38 | 0 | 0.0 | 0.0 | 0.00 | 0.00 | 0.00 | 83 | 1013.4 |
| 20260504040052 | 39 | 0 | 0.0 | 0.0 | 0.00 | 0.00 | 0.00 | 83 | 1013.1 |
| 20260504034551 | 39 | 0 | 0.0 | 0.0 | 0.00 | 0.00 | 0.00 | 82 | 1012.9 |
| 20260504033059 | 40 | 0 | 0.0 | 0.0 | 0.00 | 0.00 | 0.00 | 81 | 1012.9 |
| 20260504031554 | 40 | 0 | 0.0 | 0.0 | 0.00 | 0.00 | 0.00 | 80 | 1013.0 |
| 20260504024547 | 41 | 0 | 0.0 | 0.0 | 0.00 | 0.00 | 0.00 | 78 | 1012.9 |
| 20260504023047 | 42 | 0 | 0.0 | 0.0 | 0.00 | 0.00 | 0.00 | 77 | 1012.8 |
| 20260504021548 | 42 | 0 | 0.0 | 0.0 | 0.00 | 0.00 | 0.00 | 75 | 1012.8 |
| 20260504020042 | 43 | 0 | 0.0 | 0.0 | 0.00 | 0.00 | 0.00 | 73 | 1012.8 |
| 20260504014541 | 44 | 0 | 0.0 | 0.0 | 0.00 | 0.00 | 0.00 | 71 | 1012.7 |
| 20260504013046 | 44 | 0 | 0.0 | 0.0 | 0.00 | 0.00 | 0.00 | 67 | 1012.6 |
| 20260504011546 | 46 | 0 | 0.0 | 0.0 | 0.00 | 0.00 | 0.00 | 66 | 1012.4 |
| 20260504010054 | 47 | 0 | 0.0 | 0.0 | 0.00 | 0.00 | 0.00 | 63 | 1012.3 |
| 20260504004546 | 48 | 0 | 0.0 | 0.0 | 0.00 | 0.00 | 0.00 | 59 | 1012.1 |
| 20260504003048 | 50 | 0 | 0.0 | 0.0 | 0.00 | 0.00 | 0.00 | 55 | 1011.8 |
| 20260504001556 | 53 | 0 | 0.0 | 0.0 | 0.00 | 0.00 | 0.00 | 50 | 1011.5 |
| 20260504000057 | 55 | 0 | 0.0 | 0.0 | 0.00 | 0.00 | 0.00 | 45 | 1011.3 |
| 20260503234544 | 56 | 0 | 0.0 | 0.0 | 0.00 | 0.00 | 0.00 | 41 | 1011.2 |
| 20260503233121 | 58 | 0 | 0.0 | 0.0 | 0.00 | 0.00 | 0.00 | 40 | 1011.1 |
| 20260503231553 | 58 | 0 | 0.0 | 1.0 | 0.00 | 0.00 | 0.00 | 34 | 1011.1 |
| 20260503230104 | 59 | 0 | 0.0 | 0.0 | 0.00 | 0.00 | 0.00 | 38 | 1011.1 |
| 20260503224550 | 60 | 0 | 0.0 | 3.0 | 0.00 | 0.00 | 0.00 | 33 | 1010.9 |
| 20260503223107 | 60 | 0 | 0.0 | 11.0 | 0.00 | 0.00 | 0.00 | 33 | 1010.8 |
| 20260503221553 | 61 | 0 | 0.0 | 9.0 | 0.00 | 0.00 | 0.00 | 34 | 1010.8 |
| 20260503220042 | 61 | 0 | 0.0 | 4.0 | 0.00 | 0.00 | 0.00 | 33 | 1010.7 |
| 20260503214555 | 61 | 0 | 0.0 | 8.0 | 0.00 | 0.00 | 0.00 | 34 | 1010.7 |
| 20260503213050 | 61 | 0 | 0.0 | 9.0 | 0.00 | 0.00 | 0.00 | 30 | 1010.7 |
| 20260503211550 | 61 | 0 | 0.0 | 1.0 | 0.00 | 0.00 | 0.00 | 32 | 1010.7 |
| 20260503210045 | 61 | 0 | 0.0 | 4.0 | 0.00 | 0.00 | 0.00 | 33 | 1010.8 |
| 20260503204550 | 61 | 223 | 0.0 | 12.0 | 0.00 | 0.00 | 0.00 | 30 | 1010.8 |
| 20260503203049 | 61 | 0 | 0.0 | 3.0 | 0.00 | 0.00 | 0.00 | 34 | 1010.9 |
| 20260503201550 | 60 | 0 | 0.0 | 4.0 | 0.00 | 0.00 | 0.00 | 32 | 1011.1 |
| 20260503200048 | 60 | 0 | 0.0 | 4.0 | 0.00 | 0.00 | 0.00 | 35 | 1011.1 |
| 20260503194551 | 60 | 0 | 1.0 | 4.0 | 0.00 | 0.00 | 0.00 | 33 | 1011.2 |
| 20260503193050 | 60 | 298 | 0.0 | 12.0 | 0.00 | 0.00 | 0.00 | 31 | 1011.2 |
| 20260503191540 | 59 | 0 | 0.0 | 4.0 | 0.00 | 0.00 | 0.00 | 34 | 1011.4 |
| 20260503190050 | 58 | 0 | 0.0 | 3.0 | 0.00 | 0.00 | 0.00 | 35 | 1011.5 |
| 20260503184548 | 58 | 0 | 1.0 | 7.0 | 0.00 | 0.00 | 0.00 | 32 | 1011.6 |
| 20260503183052 | 58 | 213 | 0.0 | 4.0 | 0.00 | 0.00 | 0.00 | 36 | 1011.9 |
| 20260503181604 | 58 | 0 | 0.0 | 5.0 | 0.00 | 0.00 | 0.00 | 38 | 1012.0 |
| 20260503180053 | 57 | 0 | 0.0 | 5.0 | 0.00 | 0.00 | 0.00 | 34 | 1011.8 |
| 20260503174553 | 56 | 0 | 0.0 | 5.0 | 0.00 | 0.00 | 0.00 | 39 | 1012.0 |
| 20260503173047 | 55 | 278 | 0.0 | 7.0 | 0.00 | 0.00 | 0.00 | 45 | 1012.2 |
| 20260503171550 | 55 | 0 | 0.0 | 3.0 | 0.00 | 0.00 | 0.00 | 44 | 1012.3 |